{"data":{"norad_id":63237,"intl_designator":"2025-052AD","name":"TEVEL2-9","alt_names":[],"object_type":"PAYLOAD","status":"ACTIVE","operator":null,"country":"ISRA","launch_date":"2025-03-15","launch_site_code":"AFWTR","launch_vehicle":null,"mission":null,"orbit_class":"UNKNOWN","rcs_meters":null,"size_class":null,"mass_kg":null,"dimensions":null,"purposes":["comms"],"wikipedia_slug":null,"has_3d_model":false,"image_url":null,"decayed_at":null,"tle_current":{"epoch":"2026-05-25T03:47:26.392704Z","epoch_age_seconds":57304,"freshness":"FRESH","line1":"1 63237U 25052AD  26145.15794436  .00015408  00000+0  51499-3 0  9990","line2":"2 63237  97.3967  40.5389 0004981 204.9300 155.1701 15.31084761 66506","mean_motion":15.31084761,"eccentricity":0.0004981,"inclination_deg":97.3967,"raan_deg":40.5389,"arg_perigee_deg":204.93,"mean_anomaly_deg":155.1701,"bstar":0.00051499,"rev_number":6650,"period_min":94.050965477541,"perigee_km":469.16226532432,"apogee_km":475.986944225,"semimajor_km":6850.7116047747,"source":"CELESTRAK","updated_at":"2026-05-25T13:38:23.298005Z"}}}